STARLINK-4610, 53610

Orbit data source: Space-Track

STARLINK-4610, 53610 is a payload satellite owned by SpaceX/Seattle (US) in LEO that was launched on Sun, 28 Aug 2022 UTC via an FALCON 9 launch vehicle from the Air Force Eastern Test Range (AFETR). Payload-class satellites include a variety of spacecraft equipped with specific instruments for various scientific and technological missions. These include communications satellites like Starlink; space stations such as the ISS; scientific satellites like the Hubble; Earth observation satellites from companies like Planet Labs, Umbra, and HawkEye 360; GPS; miniature CubeSats for education and research; and military/defense satellites.

Loading next visibility...
Identifier
53610, 2022-104Y
Orbit
LEO
Country
Flag of USUS
Related business
Manufacturer
SpaceX/Seattle
Mission
Operational Commercial Communications
Bus & Motor
STARLINK, Unknown motor
Mass
300 kg wet, ~290 kg dry
Launch date (UTC)
2022-08-28 (3 years ago)
Launch vehicle
FALCON 9
Launch site
Air Force Eastern Test Range (AFETR)
Object type
Payload
Rocket body
Debris
Shape & HBR
Box + 1 Pan, 10.1 m
Radar Cross Section
13.562 m², Large (>1 m²)

Expand to show TLE details & history
Last TLE update: 17 hours ago

TLE from 17 hours ago
0 STARLINK-4610
1 53610U 22104Y   26036.63200550  .00000694  00000-0  61682-4 0  9998
2 53610  53.2193  18.1562 0001804  91.0798 269.0401 15.08838399190792
Epoch: 2026-02-05T15:10Z
TLE epoch observation values (Epoch: 2026-02-05T15:10:05.275Z)
Latitude
Longitude
14.85277°
Altitude
540.667 km
Speed
7.593 km/s
True Right ascension
01h 12m 37s
True Declination
0° 00' 00"
Sunlit
Object was in daylight at epoch
Visualization orbit readout
Latitude
Unknown
Longitude
Unknown
Altitude
Unknown
Speed
Unknown
Apparent Right ascension
Unknown
Apparent Declination
Unknown
Sunlit
N/A
Visualization observer readout
Local Sidereal Time
10:36:32
Azimuth
Unknown
Elevation
Unknown
Doppler factor
Unknown
Orbital elements
Apogee altitude
541.241 km
Perigee altitude
538.745 km
Semi-major axis
6,918.13 km
Eccentricity
0.00018
Inclination
53.2193°
RAAN
18.1562°
Arg. of periapsis
91.0798°
True anomaly
269.01943°
Mean anomaly
269.0401°
Eccentric anomaly
269.02977°
Mean motion
3.7719 °/min
Orbital period
95.44 mins
BSTAR
0.000061682
Loading maneuver chart data...
Computing Atmospheric mass density...
Loading historical data...
Loading historical data...
Loading historical data...
Loading historical data...
Loading historical data...
Loading historical data...
Loading historical data...

Documentation

Showing up to 5 results
|